Location: Unspecified
(0.0000°N, 0.0000°E)
Time: 06:24:19
(UTC+02:00)

ASC 2 Rocket - Visible Passes

Search period start: 20 October 2014 00:00
Search period end: 29 October 2014 23:00
Orbit: 555 x 2349 km, 24.0° (Epoch: 19 October)

Date Brightness Start Highest point End Pass type
(mag) Time Alt. Az. Time Alt. Az. Time Alt. Az.
20 Oct 6.5 20:01:45 10° NW 20:12:12 26° N 20:20:39 10° ENE visible
20 Oct 5.8 22:07:42 10° NW 22:16:12 37° N 22:16:12 37° N visible
21 Oct 5.8 20:59:47 10° NW 21:11:08 35° NNE 21:14:54 28° NE visible
21 Oct 6.5 23:05:25 10° WNW 23:09:47 26° NW 23:09:47 26° NW visible
22 Oct 6.5 19:51:46 10° NW 20:03:25 31° NNE 20:12:50 10° ENE visible
22 Oct 5.3 21:57:30 10° NW 22:08:32 52° N 22:08:32 52° N visible
23 Oct 5.7 20:49:35 10° NW 21:02:12 44° NNE 21:07:21 28° ENE visible
23 Oct 6.0 22:55:29 10° WNW 23:02:15 38° WNW 23:02:15 38° WNW visible
24 Oct 5.0 21:47:22 10° WNW 22:00:21 69° NNE 22:01:08 67° NE visible
24 Oct 7.1 23:54:14 10° W 23:56:03 15° W 23:56:03 15° W visible
25 Oct 5.7 20:39:26 10° NW 20:53:02 55° NNE 21:00:05 24° E visible
25 Oct 5.6 22:45:41 10° WNW 22:55:00 53° W 22:55:00 53° W visible
26 Oct 5.2 20:37:22 10° WNW 20:51:04 85° NNE 20:54:00 56° ESE visible
26 Oct 6.8 22:44:56 10° W 22:48:56 22° W 22:48:56 22° W visible
27 Oct 5.7 19:29:23 10° NW 19:43:41 67° NNE 19:53:04 17° ESE visible
27 Oct 5.5 21:36:01 10° WNW 21:48:00 59° SW 21:48:00 59° SW visible
28 Oct 5.7 06:02:44 10° S 06:04:28 12° SSE 06:06:17 10° SE visible
28 Oct 5.5 20:27:30 10° WNW 20:41:37 80° SSW 20:47:06 37° SE visible
28 Oct 6.6 22:35:48 10° W 22:42:02 27° WSW 22:42:02 27° WSW visible
29 Oct 5.7 19:19:29 10° WNW 19:34:08 81° NNE 19:45:54 10° ESE visible
29 Oct 5.8 21:26:32 10° W 21:39:13 49° SSW 21:41:10 45° S visible
